Tracking 28522 objects as of 28-Feb-2024
HD Live streaming from Space Station
objects crossing your sky now

SL-16 DEB

Track SL-16 DEB now!
10-day predictions


NORAD ID: 24300
Int'l Code: 1996-051D
Perigee: 845.9 km
Apogee: 1,136.1 km
Inclination: 71.0 °
Period: 104.8 minutes
Semi major axis: 7361 km
RCS: 0.0855 m2 (small)
Launch date: September 4, 1996
Source: Commonwealth of Independent States (former USSR) (CIS)
Launch site: TYURATAM MISSILE AND SPACE COMPLEX (TTMTR)

Note: This is SATELLITE DEBRIS
Your satellite tracking list
Your tracking list is empty




NASA's NSSDC Master Catalog

Two Line Element Set (TLE):
1 24300U 96051D   24058.89587662  .00000072  00000-0  10562-3 0  9996
2 24300  71.0304 320.0499 0197149 205.0042 242.5321 13.74389304377814
Source of the keplerian elements: AFSPC